#timestamp,LO_Frequency,Hit,StdDev 
1459274415.4,286046999.8,N
1459274435.3,286047001.5,N
1459274455.1,286047003.4,N
1459274456.0,286047003.4,N
1459274475.8,286047003.7,N
1459274495.7,286047001.4,N
1459274515.5,286047004.1,N
1459274535.3,286047004.0,N
1459274555.2,286047003.0,N
1459274575.9,286047004.1,N
1459274595.7,286047003.3,N
1459274615.6,286047007.0,Y
1459274635.4,286047006.8,P
1459274655.2,286047006.0,N
1459274675.0,286047003.0,N
1459274676.0,286047003.0,N
1459274695.8,286047003.4,N
1459274715.6,286047007.5,Y
1459274735.5,286047001.5,P
1459274755.3,286047004.3,P
1459274775.1,286047001.1,N
1459274795.8,286047003.5,N
1459274815.7,286047004.4,Y
1459274835.5,286046999.3,P
1459274855.3,286046997.8,N
1459274875.2,286046997.2,N
1459274895.0,286046998.9,N
1459274895.9,286046998.9,N
1459274915.7,286046999.1,N
1459274935.6,286046995.4,N
1459274955.4,286046995.3,N
1459274975.2,286046992.7,Y
1459274995.1,286046996.4,P
1459274996.0,286046996.4,P
1459275015.8,286046994.5,P
1459275035.6,286046993.5,Y
1459275055.5,286047002.4,P
1459275075.3,286046998.5,N
1459275095.1,286046999.4,N
1459275115.9,286046997.1,N
1459275135.7,286046998.6,N
1459275155.5,286046998.6,N
1459275175.4,286047000.2,N
1459275195.2,286047001.3,N
1459275215.0,286047001.5,N
1459275215.9,286047001.5,N
1459275235.8,286047000.2,N
1459275255.6,286047002.6,N
1459275275.4,286047005.9,Y
1459275295.3,286047002.7,P
1459275315.1,286047004.4,P
1459275316.0,286047004.4,N
1459275335.8,286047004.3,N
1459275355.7,286046999.9,N
1459275375.5,286047009.2,Y
1459275395.3,286047004.4,P
1459275415.2,286047005.9,P
1459275435.9,286047003.3,N
1459275455.7,286047005.7,Y
1459275475.6,286046998.8,P
1459275495.4,286047001.1,N
1459275515.2,286046997.7,N
1459275535.0,286047000.2,N
1459275536.0,286047000.2,N
1459275555.8,286046997.3,N
1459275575.6,286046995.2,N
1459275595.4,286046994.9,N
1459275615.3,286046995.7,N
1459275635.1,286046994.7,N
1459275655.8,286046997.9,N
1459275675.7,286046995.0,N
1459275695.5,286046995.8,N
1459275715.3,286046995.1,N
1459275735.2,286046994.0,N
1459275755.9,286046991.9,N
1459275775.7,286046992.4,N
1459275795.6,286046992.0,N
1459275815.4,286046992.6,N
1459275835.2,286046991.8,N
1459275855.0,286046996.1,N
1459275856.0,286046996.1,N
1459275875.8,286046996.3,N
1459275895.6,286046996.2,N
1459275915.4,286046997.6,N
1459275935.3,286046996.0,N
1459275955.1,286046993.6,N
1459275975.8,286046995.8,N
1459275995.7,286046997.4,N
1459276015.5,286046994.1,N
1459276035.3,286046993.9,N
1459276055.2,286046993.4,N
1459276075.9,286046992.2,Y
1459276095.7,286047001.1,P
1459276115.6,286047000.3,N
1459276135.4,286046999.9,N
1459276155.2,286047000.5,N
1459276175.1,286046999.9,N
1459276176.0,286046999.9,N
1459276195.8,286047002.1,N
1459276215.6,286047003.6,N
1459276235.4,286047005.4,N
1459276255.3,286047007.2,N
1459276275.1,286047007.4,N
1459276295.8,286047003.6,N
1459276315.7,286047004.8,N
1459276335.5,286047003.2,N
1459276355.3,286047004.9,N
1459276375.2,286047007.6,N
1459276395.9,286047004.9,N
1459276415.7,286047006.0,N
1459276435.6,286047007.5,N
1459276455.4,286047003.2,N
1459276475.2,286047002.4,N
1459276495.1,286046999.9,N
1459276496.0,286046999.9,N
1459276515.8,286047002.5,N
1459276535.6,286047002.6,N
1459276555.4,286047000.2,N
1459276575.3,286047004.3,N
1459276595.1,286047003.2,N
1459276615.8,286047001.1,N
1459276635.7,286046996.1,N
1459276655.5,286046996.9,N
1459276675.3,286046995.0,N
1459276695.2,286046995.5,N
1459276715.9,286046993.0,N
1459276735.7,286046990.3,N
1459276755.6,286046991.0,N
1459276775.4,286046987.3,N
1459276795.2,286046985.9,N
1459276815.1,286046984.3,N
1459276816.0,286046984.3,N
1459276835.8,286046986.5,N
1459276855.6,286046987.1,N
1459276875.5,286046983.9,N
1459276895.3,286046982.6,N
1459276915.1,286046982.1,N
1459276935.8,286046984.9,N
1459276955.7,286046983.1,N
1459276975.5,286046981.7,N
1459276995.3,286046982.0,N
1459277015.2,286046984.9,N
1459277035.0,286046986.4,N
1459277035.9,286046986.4,N
1459277055.7,286046984.5,N
1459277075.6,286046984.3,N
1459277095.4,286046984.1,N
1459277115.2,286046984.9,N
1459277135.1,286046984.7,N
1459277136.0,286046984.7,N
1459277155.8,286046983.9,Y
1459277175.6,286046999.2,P
1459277195.5,286046996.6,N
1459277215.3,286046996.8,N
1459277235.1,286046997.4,N
1459277255.9,286046996.6,N
1459277275.7,286046999.6,N
1459277295.5,286047001.1,N
1459277315.4,286047000.3,N
1459277335.2,286047001.3,N
1459277355.0,286047003.9,N
1459277355.9,286047003.9,N
1459277375.8,286047005.4,N
1459277395.6,286047004.7,N
1459277415.4,286047003.3,N
1459277435.3,286047003.4,N
1459277455.1,286047005.1,N
1459277456.0,286047005.1,N
1459277475.8,286047007.1,N
1459277495.7,286047003.8,N
1459277515.5,286046999.7,N
1459277535.3,286047004.2,N
1459277555.2,286047002.5,N
1459277575.9,286047000.5,N
1459277595.7,286047002.3,N
1459277615.5,286046998.1,N
1459277635.4,286047000.6,N
1459277655.2,286047000.7,N
1459277675.0,286046998.6,N
1459277675.9,286046998.6,N
1459277695.8,286046996.5,N
1459277715.6,286046996.8,N
1459277735.5,286047000.1,N
1459277755.3,286047001.5,N
1459277775.1,286046998.5,N
1459277795.8,286047000.4,N
1459277815.7,286047002.6,N
1459277835.5,286047001.2,N
1459277855.3,286047000.7,N
1459277875.2,286046999.9,N
1459277895.9,286047003.0,N
1459277915.7,286047004.7,N
1459277935.6,286047007.6,N
1459277955.4,286047004.5,N
1459277975.2,286047007.4,N
1459277995.1,286047006.4,N
1459277996.0,286047006.4,N
